Ontario, OR

8:28 AM MDT on June 26, 2017 (GMT -0600)
Ontario Municipal

Weather History for KONO - September, 2013

Change the Weather History Date:

Wednesday, September 11, 2013

  Actual Average Record
Temperature  
Mean Temperature 74 °F 65 °F  
Max Temperature 94 °F 83 °F 99 °F (1973)
Min Temperature 53 °F 47 °F 35 °F (1982)
Degree Days  
Heating Degree Days 0 3  
Month to date heating degree days 0 19  
Since 1 July heating degree days 0 35  
Cooling Degree Days 9 2  
Month to date cooling degree days 80 37  
Year to date cooling degree days 1252 830  
Growing Degree Days 24 (Base 50)    
Moisture  
Dew Point 49 °F    
Average Humidity 50    
Maximum Humidity 83    
Minimum Humidity 17    
Precipitation  
Precipitation 0.00 in 0.01 in 0.62 in (1976)
Month to date precipitation T 0.11  
Year to date precipitation 2.61 6.35  
Sea Level Pressure  
Sea Level Pressure 29.95 in    
Wind  
Wind Speed 3 mph (SW)    
Max Wind Speed 9 mph    
Max Gust Speed 12 mph    
Visibility 10 miles    
Events      
T = Trace of Precipitation, MM = Missing Value Source: NWS Daily Summary

Daily Weather History Graph

Daily Weather History Graph

Search for Another Location

Airport or City:

Trip Planner

Search our weather history database for the weather conditions in past years. The results will help you decide how hot, cold, wet, or windy it might be!

Date:

Astronomy

Sep. 11, 2013 Rise Set
Actual Time 7:23 AM MDT 8:05 PM MDT
Civil Twilight 6:53 AM MDT 8:34 PM MDT
Nautical Twilight 6:19 AM MDT 9:08 PM MDT
Astronomical Twilight 5:43 AM MDT 9:44 PM MDT
Moon 2:09 PM MDT (9/11) 11:51 PM MDT (9/11)
Length of Visible Light 13h 40m
Length of Day
12h 42m
Waxing Crescent, 39% of the Moon is Illuminated
Sep 11
Waxing Crescent
Sep 12
First Quarter
Sep 19
Full
Sep 26
Last Quarter
Oct 4
New

Hourly Weather History & Observations

Time (MDT) Temp. Heat Index Dew Point Humidity Pressure Visibility Wind Dir Wind Speed Gust Speed Precip Events Conditions
12:53 AM 60.1 °F - 53.1 °F 78% 29.94 in 10.0 mi Calm Calm - N/A   Clear
1:53 AM 61.0 °F - 51.1 °F 70% 29.95 in 10.0 mi Calm Calm - N/A   Clear
2:53 AM 57.0 °F - 51.1 °F 81% 29.96 in 10.0 mi WSW 3.5 mph - N/A   Clear
3:53 AM 55.0 °F - 48.9 °F 80% 29.96 in 10.0 mi WNW 4.6 mph - N/A   Clear
4:53 AM 55.9 °F - 48.9 °F 77% 29.97 in 10.0 mi Calm Calm - N/A   Clear
5:53 AM 55.0 °F - 48.0 °F 77% 29.97 in 10.0 mi South 4.6 mph - N/A   Clear
6:53 AM 54.0 °F - 48.0 °F 80% 29.99 in 10.0 mi WSW 4.6 mph - N/A   Clear
7:53 AM 55.0 °F - 46.9 °F 74% 30.01 in 10.0 mi Calm Calm - N/A   Clear
8:53 AM 59.0 °F - 50.0 °F 72% 30.02 in 10.0 mi Calm Calm - N/A   Clear
9:53 AM 64.0 °F - 53.1 °F 67% 30.04 in 10.0 mi SSE 3.5 mph - N/A   Clear
10:53 AM 72.0 °F - 51.1 °F 48% 30.03 in 10.0 mi Calm Calm - N/A   Clear
11:53 AM 78.1 °F - 46.0 °F 32% 30.01 in 10.0 mi WNW 3.5 mph - N/A   Clear
12:53 PM 82.0 °F - 46.9 °F 29% 30.00 in 10.0 mi Calm Calm - N/A   Clear
1:53 PM 87.1 °F - 46.0 °F 24% 29.97 in 10.0 mi East 3.5 mph - N/A   Clear
2:53 PM 90.0 °F - 45.0 °F 21% 29.95 in 10.0 mi South 3.5 mph - N/A   Clear
3:53 PM 91.0 °F - 48.9 °F 23% 29.93 in 10.0 mi South 3.5 mph - N/A   Clear
4:53 PM 93.0 °F - 45.0 °F 19% 29.90 in 10.0 mi SW 3.5 mph - N/A   Clear
5:53 PM 93.9 °F - 43.0 °F 17% 29.89 in 10.0 mi SW 6.9 mph - N/A   Clear
6:53 PM 89.1 °F - 51.1 °F 27% 29.88 in 10.0 mi WSW 8.1 mph - N/A   Clear
7:53 PM 81.0 °F 80.5 °F 54.0 °F 39% 29.88 in 10.0 mi WSW 6.9 mph - N/A   Clear
8:53 PM 75.0 °F - 52.0 °F 44% 29.89 in 10.0 mi SW 6.9 mph - N/A   Clear
9:53 PM 73.0 °F - 46.9 °F 39% 29.90 in 10.0 mi Calm Calm - N/A   Clear
10:53 PM 71.1 °F - 48.0 °F 44% 29.90 in 10.0 mi WSW 5.8 mph - N/A   Clear
11:53 PM 66.9 °F - 53.1 °F 61% 29.93 in 10.0 mi SE 8.1 mph - N/A   Clear